Zurück zum Katalog

STARLINK-37109

AktivKommunikationSSO
NORAD 68666·PAYLOAD·🇺🇸 United States

Gestartet Apr 11, 2026 von Vandenberg Space Force Base

Loading…

Nächste Überflüge (nächste 24 Stunden)

TLE

AktuellSource: CelesTrak SupGP

Epoche: Sep 14, 2026, 21:15 UTC

1 68666C 26077E   26257.88590278 -.00003832  00000+0 -11902-3 0  2573
2 68666  97.2847 127.8152 0001757  94.1205 122.9589 15.33422439    11

Verfolge STARLINK-37109 in Echtzeit mit AllMySat

Download on the App Store